Main page
METAR-TAF:

METAR-TAF

Airports :

Kirksville Regional Airport

Kirksville, Missouri, United States

latitude: 40-05-50N, longitude: 092-32-36W, elevation: 964 ft

Current weather observation

The report was made 21 minutes ago, at 06:55 UTC
Wind 14 mph from the Southeast
Temperature 70°F
Humidity 88%
Pressure 29.75 in. Hg
Visibility: 10 miles
Scattered clouds at a height of 6000 ft
Broken clouds at a height of 8000 ft

METAR: KIRK 240655Z AUTO 14012KT 10SM SCT060 BKN080 21/19 A2975 RMK AO2 SLP069 T02110189

Time: 02:16 (07:16 UTC)


TAF: missing

Weather observations and forecasts of more than 4000 airports (METAR and TAF reports).

The available stations are represented by yellow and red dots on the map.

Hover mouse over dot to see the name of the station.

Then click to see weather observations and forecasts.

To change the map : click on the green buttons with a black cross to zoom in, on the green button with a dash to zoom out, or on the green arrows for adjacent maps.


METAR-TAF: